This demonstration page uses our WeatherBlox Daily Observations layout. Learn more.

Left ArrowRight Arrow

39.01783, -85.05884

Hourly Observations for September 17, 2021

Temp ( °F °C ) Dew Point ( °F °C ) Humidity (%) Winds ( mph kmh ) Pressure ( in mb ) Visibility ( mi km ) Precip ( " mm )
12:52 am 00:52 Clear 70 21.1 64 17.8 82 82 E 3 6 30.08 1019 10 16 N/A
1:52 am 01:52 Clear 70 21.1 64 17.8 82 82 E 3 6 30.07 1018 10 16 N/A
2:52 am 02:52 Clear 68 20 64 17.8 87 87 ESE 3 6 30.06 1018 10 16 N/A
3:52 am 03:52 Clear 68 20 64 17.8 87 87 ESE 3 6 30.05 1018 10 16 N/A
4:52 am 04:52 Clear 68 20 64 17.8 87 87 ESE 3 6 30.06 1018 10 16 N/A
5:52 am 05:52 Clear 68 20 64 17.8 87 87 ENE 3 6 30.08 1019 10 16 N/A
6:52 am 06:52 Clear with Mist and Fog 66 18.9 63 17.2 90 90 N N/A 30.09 1019 6 10 N/A
7:52 am 07:52 Sunny with Mist and Fog 68 20 64 17.8 87 87 ESE 5 7 30.11 1020 5 8 N/A
8:52 am 08:52 Sunny 71 21.7 66 18.9 84 84 SSE 5 7 30.12 1020 7 11 N/A
9:52 am 09:52 Sunny 75 23.9 67 19.4 76 76 SW 3 6 30.12 1020 10 16 N/A
10:52 am 10:52 Sunny 79 26.1 68 20 69 69 N N/A 30.14 1021 10 16 N/A
11:52 am 11:52 Mostly Sunny 81 27.2 68 20 65 65 N N/A 30.14 1021 10 16 N/A
12:52 pm 12:52 Mostly Cloudy 82 27.8 66 18.9 58 58 W 3 6 30.12 1020 10 16 N/A
1:52 pm 13:52 Partly Cloudy 86 30 65 18.3 49 49 N N/A 30.10 1019 10 16 N/A
2:52 pm 14:52 Mostly Cloudy 86 30 66 18.9 51 51 VRB 6 9 30.09 1019 10 16 N/A
3:52 pm 15:52 Mostly Cloudy 83 28.3 66 18.9 57 57 E 7 11 30.07 1018 10 16 N/A
4:31 pm 16:31 Mostly Cloudy 81 27.2 67 19.4 62 62 SSE 14 22 30.06 1018 10 16 N/A
4:52 pm 16:52 Mostly Cloudy with Light Rain 75 23.9 69 20.6 82 82 S 14 22 30.08 1019 9 14 0.00 0.00
5:52 pm 17:52 Partly Cloudy 81 27.2 67 19.4 62 62 S 6 9 30.06 1018 10 16 0.01 0.25
6:52 pm 18:52 Mostly Sunny 81 27.2 70 21.1 69 69 N N/A 30.06 1018 10 16 N/A
7:52 pm 19:52 Mostly Clear 77 25 68 20 74 74 N N/A 30.06 1018 10 16 N/A
8:52 pm 20:52 Partly Cloudy 75 23.9 68 20 79 79 SSW 3 6 30.07 1018 10 16 N/A
9:52 pm 21:52 Mostly Clear 73 22.8 68 20 84 84 SSW 5 7 30.09 1019 10 16 N/A
10:52 pm 22:52 Mostly Clear 71 21.7 68 20 90 90 S 5 7 30.09 1019 10 16 N/A
11:52 pm 23:52 Clear 69 20.6 66 18.9 90 90 SSE 6 9 30.10 1019 10 16 N/A

Powered by AerisWeather